Date,TemperatureHighF,TemperatureAvgF,TemperatureLowF,DewpointHighF,DewpointAvgF,DewpointLowF,HumidityHigh,HumidityAvg,HumidityLow,PressureMaxIn,PressureMinIn,WindSpeedMaxMPH,WindSpeedAvgMPH,GustSpeedMaxMPH,PrecipitationSumIn
2013-2-1,50,47,44,-100,-100,-100,0,0,100,30.42,30.34,12,-31,14,0.00
2013-2-2,44,42,39,-100,-100,-100,0,0,100,30.39,30.27,9,4,11,0.00
2013-2-3,48,44,39,-100,-100,-100,0,0,100,30.32,30.22,9,5,13,0.00
2013-2-4,51,47,45,-100,-100,-100,0,0,100,30.22,29.89,13,-10,15,0.00
2013-2-5,51,47,45,-100,-100,-100,0,0,100,29.95,29.85,17,8,24,0.00
2013-2-6,51,47,44,-100,-100,-100,0,0,100,30.06,29.80,13,7,22,0.00
2013-2-7,51,46,43,-100,-100,-100,0,0,100,30.19,29.80,14,-3,22,0.00
2013-2-8,45,43,40,-100,-100,-100,0,0,100,30.32,30.19,7,-3,11,0.00
2013-2-9,46,43,41,-100,-100,-100,0,0,100,30.35,30.27,7,-46,9,0.00
2013-2-10,45,42,37,-100,-100,-100,0,0,100,30.39,30.33,9,-31,11,0.00
2013-2-11,47,45,42,-100,-100,-100,0,0,100,30.37,30.33,8,4,11,0.00
2013-2-12,51,48,45,-100,-100,-100,0,0,100,30.41,30.29,19,-1,32,0.00
2013-2-13,49,47,45,-100,-100,-100,0,0,100,30.51,30.30,16,-72,24,0.00
2013-2-14,49,46,44,-100,-100,-100,0,0,100,30.56,30.50,8,-10,11,0.00
2013-2-15,54,47,43,-100,-100,-100,0,0,100,30.56,30.19,13,-44,18,0.00
2013-2-16,53,47,42,-100,-100,-100,0,0,100,30.20,30.12,16,-1,26,0.00
2013-2-17,47,43,41,-100,-100,-100,0,0,100,30.26,30.13,10,-23,12,0.00
2013-2-18,46,43,41,-100,-100,-100,0,0,100,30.13,29.77,9,4,16,0.00
2013-2-19,49,44,41,-100,-100,-100,0,0,100,30.02,29.75,13,-18,17,0.00
2013-2-20,46,42,38,-100,-100,-100,0,0,100,30.06,30.00,10,4,17,0.00
2013-2-21,45,43,41,-100,-100,-100,0,0,100,30.08,30.02,23,7,28,0.00
2013-2-22,47,44,40,-100,-100,-100,0,0,100,30.06,29.71,23,12,35,0.00
2013-2-23,50,44,40,-100,-100,-100,0,0,100,30.39,29.91,9,5,18,0.00
2013-2-24,48,45,42,-100,-100,-100,0,0,100,30.39,29.96,13,7,22,0.00
2013-2-25,52,45,41,-100,-100,-100,0,0,100,30.32,29.90,22,11,32,0.00
2013-2-26,48,44,40,-100,-100,-100,0,0,100,30.36,30.21,13,6,19,0.00
2013-2-27,47,45,43,-100,-100,-100,0,0,100,30.32,30.21,13,-52,17,0.00
2013-2-28,53,48,44,-100,-100,-100,0,0,100,30.34,30.20,14,-30,17,0.00